Weather History for KTRI - January, 2013

Change the Weather History Date:

Saturday, January 19, 2013

  Actual Average Record
Temperature  
Mean Temperature 33 °F 35 °F  
Max Temperature 46 °F 45 °F 66 °F (1951)
Min Temperature 19 °F 25 °F -8 °F (1994)
Degree Days  
Heating Degree Days 32 30  
Month to date heating degree days 438 570  
Since 1 July heating degree days 2105 2299  
Cooling Degree Days 0 0  
Month to date cooling degree days 0 0  
Year to date cooling degree days 0 0  
Moisture  
Dew Point 24 °F    
Average Humidity 79    
Maximum Humidity 100    
Minimum Humidity 58    
Precipitation  
Precipitation 0.00 in 0.12 in 1.33 in (2001)
Month to date precipitation 7.42 2.04  
Year to date precipitation 7.42 2.04  
Snow  
Snow 0.00 in 0.20 in - ()
Month to date snowfall 3.5 2.9  
Since 1 July snowfall 4.1 5.6  
Snow Depth 2.00 in    
Sea Level Pressure  
Sea Level Pressure 30.35 in    
Wind  
Wind Speed 0 mph (SW)    
Max Wind Speed 5 mph    
Max Gust Speed 6 mph    
Visibility 4 miles    
Events Fog    
T = Trace of Precipitation, MM = Missing Value Source: NWS Daily Summary

Daily Weather History Graph

Daily Weather History Graph

Search for Another Location

Airport or City:

Trip Planner

Search our weather history database for the weather conditions in past years. The results will help you decide how hot, cold, wet, or windy it might be!

Date:

Astronomy

Jan. 19, 2013 Rise Set
Actual Time 7:39 AM EST 5:42 PM EST
Civil Twilight 7:11 AM EST 6:10 PM EST
Nautical Twilight 6:39 AM EST 6:41 PM EST
Astronomical Twilight 6:08 AM EST 7:12 PM EST
Moon 12:05 PM EST (1/19) 1:14 AM EST (1/19)
Length of Visible Light 10h 58m
Length of Day
10h 03m
First Quarter, 57% of the Moon is Illuminated
Jan 19
First Quarter
Jan 26
Full
Feb 3
Last Quarter
Feb 10
New
Feb 17
First Quarter

Hourly Weather History & Observations

Time (EST) Temp. Windchill Dew Point Humidity Pressure Visibility Wind Dir Wind Speed Gust Speed Precip Events Conditions
12:53 AM 24.1 °F - 21.9 °F 91% 30.42 in 3.0 mi Calm Calm - N/A   Clear
1:17 AM 24.1 °F - 21.9 °F 91% 30.40 in 2.5 mi Calm Calm - N/A   Clear
1:53 AM 24.1 °F - 23.0 °F 96% 30.42 in 3.0 mi Calm Calm - N/A   Partly Cloudy
2:53 AM 21.9 °F - 19.9 °F 92% 30.42 in 3.0 mi Calm Calm - N/A   Partly Cloudy
3:53 AM 21.0 °F - 19.0 °F 92% 30.42 in 3.0 mi Calm Calm - N/A   Partly Cloudy
4:21 AM 21.0 °F - 19.0 °F 92% 30.40 in 1.5 mi Calm Calm - N/A   Scattered Clouds
4:44 AM 21.9 °F - 19.9 °F 92% 30.40 in 0.2 mi Calm Calm - N/A Fog Light Freezing Fog
4:53 AM 21.9 °F - 19.9 °F 92% 30.41 in 0.2 mi Calm Calm - N/A Fog Light Freezing Fog
5:21 AM 21.0 °F - 19.0 °F 92% 30.40 in 1.5 mi Calm Calm - N/A   Overcast
5:25 AM 21.0 °F - 19.0 °F 92% 30.40 in 4.0 mi Calm Calm - 0.00 in   Light Freezing Drizzle
5:46 AM 21.0 °F - 18.0 °F 88% 30.39 in 3.0 mi Calm Calm - 0.00 in   Scattered Clouds
5:53 AM 21.0 °F - 18.0 °F 88% 30.41 in 3.0 mi Calm Calm - 0.00 in   Scattered Clouds
6:53 AM 19.0 °F - 17.1 °F 92% 30.40 in 4.0 mi Calm Calm - N/A   Partly Cloudy
7:04 AM 19.0 °F - 17.1 °F 92% 30.39 in 2.0 mi Calm Calm - N/A   Clear
7:48 AM 19.4 °F - 17.6 °F 93% 30.39 in 4.0 mi Calm Calm - N/A   Clear
7:53 AM 19.9 °F - 16.0 °F 85% 30.42 in 4.0 mi Calm Calm - N/A   Clear
8:07 AM 19.9 °F - 19.0 °F 96% 30.40 in 0.5 mi Calm Calm - N/A Fog Light Freezing Fog
8:16 AM 19.9 °F - 18.0 °F 92% 30.40 in 0.2 mi Calm Calm - N/A Fog Light Freezing Fog
8:51 AM 21.2 °F - 19.4 °F 93% 30.40 in 0.2 mi Calm Calm - N/A Fog Light Freezing Fog
8:53 AM 21.9 °F - 19.9 °F 92% 30.42 in 0.2 mi Calm Calm - N/A Fog Light Freezing Fog
9:00 AM 23.0 °F - 21.9 °F 96% 30.40 in 0.1 mi Calm Calm - N/A Fog Light Freezing Fog
9:53 AM 24.1 °F - 24.1 °F 100% 30.43 in 0.1 mi Calm Calm - N/A Fog Light Freezing Fog
10:23 AM 27.0 °F - 27.0 °F 100% 30.41 in 2.5 mi Calm Calm - N/A   Partly Cloudy
10:53 AM 28.0 °F - 28.0 °F 100% 30.43 in 2.5 mi Calm Calm - N/A   Partly Cloudy
11:13 AM 28.9 °F - 28.0 °F 96% 30.40 in 1.0 mi Calm Calm - N/A   Mostly Cloudy
11:42 AM 32.0 °F - 30.0 °F 92% 30.38 in 4.0 mi Calm Calm - N/A   Partly Cloudy
11:53 AM 32.0 °F - 30.0 °F 92% 30.39 in 4.0 mi Calm Calm - N/A   Partly Cloudy
12:53 PM 35.1 °F - 30.9 °F 85% 30.33 in 10.0 mi Calm Calm - N/A   Clear
1:53 PM 39.9 °F - 30.9 °F 70% 30.29 in 10.0 mi Calm Calm - N/A   Clear
2:53 PM 42.1 °F 40.2 °F 32.0 °F 67% 30.25 in 10.0 mi SW 3.5 mph - N/A   Clear
3:53 PM 45.0 °F - 32.0 °F 60% 30.23 in 10.0 mi Calm Calm - N/A   Clear
4:53 PM 45.0 °F - 30.0 °F 56% 30.21 in 10.0 mi Calm Calm - N/A   Clear
5:53 PM 41.0 °F - 28.9 °F 62% 30.21 in 10.0 mi Calm Calm - N/A   Clear
6:53 PM 35.1 °F - 28.9 °F 78% 30.22 in 10.0 mi Calm Calm - N/A   Clear
7:53 PM 33.1 °F - 28.0 °F 82% 30.22 in 10.0 mi Calm Calm - N/A   Clear
8:53 PM 30.0 °F - 27.0 °F 88% 30.22 in 10.0 mi Calm Calm - N/A   Clear
9:53 PM 30.0 °F - 27.0 °F 88% 30.20 in 10.0 mi Calm Calm - N/A   Clear
10:53 PM 28.0 °F - 26.1 °F 92% 30.19 in 10.0 mi Calm Calm - N/A   Clear
11:53 PM 28.0 °F - 26.1 °F 92% 30.17 in 10.0 mi Calm Calm - N/A   Clear